Home > Weather > Nampula > Past weeks

Flag for Mozambique Past Weather in Nampula, Mozambique — Yesterday and Last 2 Weeks

Now
77 °F

Partly sunny.


Feels Like: 79 °F
Forecast: 60 / 77 °F
Wind: 16 mph from Southwest

Location: Nampula Airport

Current Time: May 29, 2016 at 1:48:04 PM

Latest Report: May 29, 2016 at 1:00 PM


Visibility: N/A

Pressure: 30.09 "Hg

Humidity: 57%

Dew Point: 61 °F

Location of NampulaLocation

Past Weather in Nampula — Graph

°F

Nampula Temperature Yesterday

Maximum temperature yesterday: 79 °F (at 1:00 PM)
Minimum temperature yesterday: 64 °F (at 1:00 AM)
Average temperature yesterday: 71 °F

High & Low Weather Summary for the Past Weeks

 TemperatureHumidityPressure
High82 °F (May 25, 12:00 PM)100% (May 21, 2:00 PM)30.27 "Hg (May 21, 2:00 PM)
Low61 °F (May 23, 5:00 AM)40% (May 25, 1:00 PM)30.04 "Hg (May 19, 3:00 PM)
Average72 °F72%30.15 "Hg
* Reported May 19 3:00 PM — May 29 12:00 PM, Nampula, Weather by CustomWeather, © 2016

Note: Actual official high and low records may vary slightly from our data, if they occured in-between our weather recording intervals... More about our weather records

Advertising

Nampula Weather History for the Previous 24 Hours

Scroll right to see more
 ConditionsComfort  
Time TempWeatherWind HumidityBarometerVisibility
12:00 PM
Sun, May 29
77 °FPartly sunny.16 mph57%30.09 "HgN/A
8:00 AM66 °FScattered clouds.14 mph83%30.15 "HgN/A
6:00 AM64 °FPassing clouds.N/A94%30.15 "HgN/A
5:00 AM64 °FPassing clouds.N/A94%30.15 "HgN/A
4:00 AM63 °FPassing clouds.N/A94%30.15 "HgN/A
2:00 AM64 °FPassing clouds.N/A88%30.15 "HgN/A
1:00 AM66 °FPassing clouds.N/A94%30.18 "HgN/A
12:00 AM66 °FPassing clouds.N/A88%30.18 "HgN/A
11:00 PM
Sat, May 28
68 °FPassing clouds.7 mph78%30.18 "HgN/A
10:00 PM72 °FPassing clouds.5 mph69%30.15 "HgN/A
9:00 PM72 °FPassing clouds.6 mph69%30.15 "HgN/A
8:00 PM73 °FClear.6 mph65%30.15 "Hg10 mi
7:00 PM73 °FClear.7 mph65%30.12 "Hg10 mi
6:00 PM73 °FClear.N/A65%30.12 "Hg10 mi
5:00 PM77 °FPassing clouds.6 mph57%30.12 "HgN/A
4:00 PM79 °FScattered clouds.8 mph51%30.09 "HgN/A
3:00 PM79 °FPartly sunny.5 mph51%30.09 "HgN/A
2:00 PM79 °FPartly sunny.7 mph51%30.09 "HgN/A
1:00 PM79 °FPartly sunny.9 mph54%30.09 "HgN/A
Weather by CustomWeather, © 2016

See weather overviewHow to use our weather pages